Regional Weather Roundup
Issued by NWS Newport/Morehead, NC

Current Version | Previous Version | Text Only | Print | Product List | Glossary On
Versions: 1 2 3 4 5 6 7 8 9 10 11 12 13 14 15 16 17 18 19 20 21 22 23 24 25 26 27 28 29 30 31 32 33 34 35 36 37 38 39 40 41 42 43 44 45 46 47 48 49 50
000 ASUS42 KMHX 280325 RWRMHX WEATHER ROUNDUP FOR EASTERN NORTH CAROLINA NATIONAL WEATHER SERVICE NEWPORT/MOREHEAD CITY NC 1100 PM EDT WED JUL 27 2016 NOTE: "FAIR" INDICATES FEW OR NO CLOUDS BELOW 12,000 FEET WITH NO SIGNIFICANT WEATHER AND/OR OBSTRUCTIONS TO VISIBILITY NCZ015>017-031-032-045>047-102-103-280400- NORTH COAST CITY SKY/WX TMP DP RH WIND PRES REMARKS EDENTON CLOUDY 82 75 78 S10 29.93F ELIZABETH CITY CLOUDY 83 78 85 S10 29.91F KITTY HAWK CLOUDY 81 73 76 SW7 29.91F MANTEO N/A 81 76 85 W14G20 29.93F $$ NCZ045>047-081-094-103-104-280400- CENTRAL COAST CITY SKY/WX TMP DP RH WIND PRES REMARKS FRISCO CLOUDY 80 74 81 W13G20 29.94S $$ NCZ095-097-098-100-101-280400- SOUTHERN COAST CITY SKY/WX TMP DP RH WIND PRES REMARKS BEAUFORT HVY RAIN 72 69 90 NE15G26 N/A FOG CEDAR ISLAND NOT AVBL JACKSONVILLE PTCLDY 84 75 74 E5 29.96R PINEY ISLAND NOT AVBL WILMINGTON CLEAR 83 77 82 SW9 29.97R $$ NCZ011>013-027>030-043-044-078>080-089-090>093-098-280400- COASTAL PLAIN CITY SKY/WX TMP DP RH WIND PRES REMARKS AHOSKIE CLOUDY 80 77 90 CALM 29.94R CLINTON CLEAR 84 77 79 S3 29.95F ELIZABETHTOWN CLEAR 83 78 86 S5 29.96S GOLDSBORO CLEAR 87 79 78 SE3 29.92S HX 100 GREENVILLE CLOUDY 82 75 78 S7 29.96S HAVELOCK TSTM 76 73 91 E7 30.03R FOG KENANSVILLE NOT AVBL KINSTON CLOUDY 82 74 78 E6 29.96 NEW BERN TSTM 76 73 91 SE12 30.02R RICHLANDS MOCLDY 83 77 82 S7 29.96S ROCKY MOUNT PTCLDY 81 74 79 N5 29.94R WASHINGTON CLOUDY 78 73 87 S9 29.95S WHITEVILLE CLEAR 82 78 87 S3 29.96S $$ AMZ130-135-150-152-154-156-158-170-250-252-270-ANZ085-086-088-633-658-670-280400- MARINE OBSERVATIONS STATION/POSITION TIME TEMP WIND PRES WAVE SWELL AIR SEA DIR/SP/G HT/PER HT/PER (UTC) (F) (DEG/KT/KT) (MB) (FT/S) (FT/S) CHESAPEAKE LIGHT NOT AVBL 64 E VA BEACH 0250 83 83 190/ 8/ 8 1013.1 2/ 6 2/ 6 DUCK 0200 68 N/A 2 E DUCK 0211 74 N/A 1/ 8 OREGON INLET 0200 80 N/A 13E OREGON INLT 0300 83 N/A 2/ 4 HATTERAS CG 0200 84 N/A DIAMOND BUOY 0250 83 85 260/ 14/ 16 1013.8 3/ 6 2/ 8 CAPE LOOKOUT 0300 78 360/ 20/ 24 1015.5 BEAUFORT LAB 0200 84 N/A 30 SE NEW RVR IN 0308 85 85 240/ 12/ 17 1015.2 30 SE NEW RVR IN 0225 85 N/A 5/ 6 27 SE WRIGHTSVLE 0308 84 84 230/ 12/ 16 1015.2 5 SE WRIGHTSVLE 0308 81 80 220/ 8/ 10 1015.6 225 S CAPE HAT 0250 84 85 260/ 12/ 14 1016.5 3/ 6 2/ 6 41 SE CHARLESTON 0250 86 86 220/ 16/ 17 1015.2 3/ 4 2/ 8 $$

USA.gov is the U.S. government's official web portal to all federal, state and local government web resources and services.